TimeMDT,TemperatureF,Dew PointF,Humidity,Sea Level PressureIn,VisibilityMPH,Wind Direction,Wind SpeedMPH,Gust SpeedMPH,PrecipitationIn,Events,Conditions,WindDirDegrees,DateUTC
12:23 AM,6.8,3.2,85,30.30,10.0,NW,4.6,-,N/A,,Mostly Cloudy,310,2013-03-24 06:23:00
12:34 AM,6.8,3.2,85,30.30,9.0,NW,5.8,-,N/A,,Overcast,310,2013-03-24 06:34:00
12:53 AM,7.0,3.9,87,30.44,3.0,NW,6.9,-,0.00,Snow,Light Snow,320,2013-03-24 06:53:00
1:53 AM,8.1,3.9,83,30.44,4.0,NW,6.9,-,0.00,Snow,Light Snow,320,2013-03-24 07:53:00
2:53 AM,8.1,5.0,87,30.44,4.0,NNW,8.1,-,0.00,Snow,Light Snow,330,2013-03-24 08:53:00
3:53 AM,8.1,3.9,83,30.43,6.0,NW,5.8,-,0.00,,Overcast,320,2013-03-24 09:53:00
4:53 AM,8.1,3.9,83,30.44,10.0,NW,11.5,-,N/A,,Overcast,320,2013-03-24 10:53:00
5:53 AM,5.0,1.9,87,30.46,10.0,NW,8.1,-,N/A,,Scattered Clouds,310,2013-03-24 11:53:00
6:53 AM,3.9,-0.0,84,30.48,10.0,NW,9.2,-,N/A,,Clear,310,2013-03-24 12:53:00
7:53 AM,3.0,-0.0,87,30.49,10.0,WNW,10.4,-,N/A,,Clear,300,2013-03-24 13:53:00
8:53 AM,3.9,-0.0,84,30.50,9.0,NW,10.4,-,N/A,,Clear,310,2013-03-24 14:53:00
9:53 AM,7.0,3.0,84,30.51,10.0,NW,12.7,-,N/A,,Overcast,310,2013-03-24 15:53:00
10:53 AM,10.9,3.9,73,30.52,10.0,NW,9.2,-,N/A,,Clear,310,2013-03-24 16:53:00
11:53 AM,15.1,7.0,70,30.52,10.0,NW,10.4,-,N/A,,Clear,310,2013-03-24 17:53:00
12:53 PM,17.1,8.1,68,30.51,10.0,WNW,9.2,-,N/A,,Clear,300,2013-03-24 18:53:00
1:53 PM,19.0,9.0,65,30.50,10.0,NW,9.2,-,N/A,,Clear,320,2013-03-24 19:53:00
2:53 PM,19.0,9.0,65,30.50,10.0,NNW,9.2,-,N/A,,Clear,330,2013-03-24 20:53:00
4:53 PM,19.9,9.0,62,30.50,10.0,NNE,6.9,-,N/A,,Clear,20,2013-03-24 22:53:00
5:53 PM,19.0,8.1,62,30.51,10.0,NNW,6.9,-,N/A,,Clear,340,2013-03-24 23:53:00
6:53 PM,16.0,7.0,68,30.51,10.0,North,3.5,-,N/A,,Clear,360,2013-03-25 00:53:00
7:53 PM,12.9,6.1,74,30.50,10.0,NE,4.6,-,N/A,,Clear,50,2013-03-25 01:53:00
8:53 PM,10.0,5.0,80,30.51,10.0,ENE,6.9,-,N/A,,Clear,60,2013-03-25 02:53:00
9:53 PM,6.1,1.9,83,30.51,10.0,East,9.2,-,N/A,,Clear,80,2013-03-25 03:53:00
10:53 PM,5.0,1.0,84,30.51,10.0,Calm,Calm,-,N/A,,Clear,0,2013-03-25 04:53:00
11:53 PM,1.9,-2.9,80,30.50,10.0,East,5.8,-,N/A,,Clear,80,2013-03-25 05:53:00